CDT,Max TemperatureF,Mean TemperatureF,Min TemperatureF,Max Dew PointF,MeanDew PointF,Min DewpointF,Max Humidity, Mean Humidity, Min Humidity, Max Sea Level PressureIn, Mean Sea Level PressureIn, Min Sea Level PressureIn, Max VisibilityMiles, Mean VisibilityMiles, Min VisibilityMiles, Max Wind SpeedMPH, Mean Wind SpeedMPH, Max Gust SpeedMPH,PrecipitationIn, CloudCover, Events, WindDirDegrees
2013-9-1,71,63,55,66,61,55,100,80,64,30.03,29.91,29.80,10,10,10,18,9,24,0.00,4,,311
2013-9-2,66,58,50,55,53,48,100,85,60,30.13,30.08,30.03,10,10,10,10,4,,0.00,4,,338
2013-9-3,78,63,48,64,57,48,100,81,47,30.10,30.06,30.01,10,10,5,6,1,,0.00,1,,202
2013-9-4,86,72,59,66,63,59,100,75,43,30.18,30.10,30.03,10,10,2,10,1,,0.00,0,,51
2013-9-5,86,74,62,72,63,59,94,73,48,30.22,30.17,30.09,10,10,10,13,6,18,0.00,2,Thunderstorm,106
2013-9-6,91,80,69,72,69,64,100,72,43,30.10,29.97,29.86,10,10,7,10,4,18,0.00,1,,163
2013-9-7,93,81,69,72,69,61,100,71,34,30.04,29.94,29.88,10,9,7,13,4,18,0.00,0,,41
2013-9-8,71,66,62,66,62,57,88,82,68,30.06,29.99,29.89,10,10,10,13,8,17,0.00,6,Rain,83
2013-9-9,91,78,66,75,70,63,100,82,46,29.89,29.75,29.64,10,8,2,12,6,17,0.00,4,Rain-Thunderstorm,181
2013-9-10,84,75,64,70,65,57,100,77,40,30.02,29.92,29.81,10,10,7,13,6,20,0.00,2,Rain-Thunderstorm,277
2013-9-11,84,73,62,63,55,46,94,61,27,30.12,30.05,30.01,10,10,10,18,5,25,0.00,0,,291
2013-9-12,75,64,53,55,48,41,94,60,31,30.26,30.21,30.12,10,10,10,18,7,24,0.00,2,,335
2013-9-13,71,58,46,52,46,41,100,66,35,30.29,30.21,30.08,10,10,7,9,1,,0.00,0,,148
2013-9-14,71,62,53,61,52,46,100,80,49,30.08,29.98,29.89,10,9,2,13,4,,0.00,3,Rain,152
2013-9-15,66,58,51,59,55,50,100,90,64,30.33,30.11,29.88,10,9,3,16,7,21,0.00,5,Rain,16
2013-9-16,66,54,42,52,47,43,100,79,49,30.41,30.33,30.23,10,10,10,14,5,10,0.00,0,,123
2013-9-17,62,55,48,59,54,48,100,91,77,30.23,30.08,29.92,10,9,3,16,7,23,0.00,6,Rain,144
2013-9-18,80,70,60,73,67,61,100,94,74,29.92,29.77,29.68,10,5,1,10,6,17,0.00,5,Rain,144
2013-9-19,75,68,60,72,65,54,100,87,64,29.85,29.74,29.64,10,9,3,25,6,34,0.00,3,Rain-Thunderstorm,266
2013-9-20,62,58,51,57,52,48,100,83,59,29.96,29.90,29.84,10,10,2,17,10,24,0.00,6,Rain,293
2013-9-21,64,55,46,50,47,45,100,78,49,30.02,29.97,29.91,10,10,10,9,4,,0.00,1,,314
2013-9-22,78,62,46,55,52,46,100,72,42,29.94,29.88,29.80,10,9,2,18,9,30,0.00,1,,133
2013-9-23,75,64,53,54,52,50,94,66,41,29.91,29.87,29.83,10,10,10,16,10,26,0.00,1,,142
2013-9-24,73,62,50,57,54,50,100,82,53,29.97,29.94,29.91,10,10,7,8,4,,0.00,1,,129
2013-9-25,75,63,51,57,53,48,100,76,41,29.96,29.92,29.84,10,8,0,16,4,22,0.00,1,Fog,135
2013-9-26,82,70,57,61,57,54,88,68,42,29.89,29.85,29.77,10,10,10,21,11,31,0.00,0,,138
2013-9-27,82,74,66,66,63,59,94,71,45,29.87,29.82,29.75,10,10,5,15,9,25,0.00,2,Rain-Thunderstorm,148
2013-9-28,73,62,50,64,54,45,100,79,55,29.93,29.77,29.62,10,9,2,21,10,26,0.00,5,Rain,216
2013-9-29,78,61,44,48,45,41,93,60,28,29.94,29.86,29.74,10,10,10,9,3,16,0.00,1,,166
2013-9-30,80,68,55,54,49,45,77,53,32,29.74,29.64,29.58,10,10,10,8,5,16,0.00,0,,162